{"data":{"norad_id":63936,"epoch":"2026-05-25T02:35:44.058048Z","epoch_age_seconds":55935,"freshness":"FRESH","line1":"1 63936U 25098L   26145.10814882  .00004607  00000+0  39367-3 0  9998","line2":"2 63936  70.0007  81.5969 0003148 269.2625  90.8173 14.98329331 58003","mean_motion":14.98329331,"eccentricity":0.0003148,"inclination_deg":70.0007,"raan_deg":81.5969,"arg_perigee_deg":269.2625,"mean_anomaly_deg":90.8173,"bstar":0.00039367,"rev_number":5800,"period_min":96.107042037209,"perigee_km":569.87003839916,"apogee_km":574.24588114584,"semimajor_km":6950.1949597725,"source":"CELESTRAK","updated_at":"2026-05-25T13:38:20.184582Z"}}